{"data":{"norad_id":83934,"intl_designator":"","name":"UNKNOWN","alt_names":[],"object_type":"UNKNOWN","status":"UNKNOWN","operator":null,"country":null,"launch_date":null,"launch_site_code":null,"launch_vehicle":null,"mission":null,"orbit_class":"UNKNOWN","rcs_meters":null,"size_class":null,"mass_kg":null,"dimensions":null,"purposes":[],"wikipedia_slug":null,"has_3d_model":false,"image_url":null,"decayed_at":null,"tle_current":{"epoch":"2026-05-24T02:07:53.832000Z","epoch_age_seconds":147716,"freshness":"FRESH","line1":"1 83934U          26144.08881750 -.00000015  00000+0  00000+0 0  9996","line2":"2 83934   5.4171 296.5286 0223665 275.5922  70.1599  1.02661769 46943","mean_motion":1.02661769,"eccentricity":0.0223665,"inclination_deg":5.4171,"raan_deg":296.5286,"arg_perigee_deg":275.5922,"mean_anomaly_deg":70.1599,"bstar":0,"rev_number":4694,"period_min":1402.664316061,"perigee_km":34201.2442385,"apogee_km":36058.011074888,"semimajor_km":41507.764656694,"source":"CELESTRAK","updated_at":"2026-05-25T13:38:11.424962Z"}}}